Wind_Speed
1 6 3 2 1 1 6 6 6 2 4 2 1 2 2 4 4 6 7 8 8 8 8 12 13 13 14 12 10 8 7 5 5 5 5 4 4 5 5 6 8 9 10 13
6 4 3 2 3 5 6 7 3 2 4 2 4 6 6 6 6 7 9 8 9 4 5 10 16 17 18 14 12 10 7 6 6 5 4 4 5 5 6 6 7 9 9 11
7 2 2 4 5 7 5 6 3 4 2 4 3 6 3 1 2 3 5 6 5 9 9 8 14 19 18 18 15 11 9 8 6 5 5 6 7 6 6 6 7 8 9 10
7 6 4 6 5 2 4 2 3 6 4 3 4 3 4 2 4 2 4 5 8 8 5 5 10 16 22 19 14 12 9 7 6 7 7 8 8 8 7 10 9 10 10 10
2 5 7 8 2 1 3 3 4 3 5 4 8 4 6 2 3 4 3 3 2 3 5 6 9 15 19 18 16 10 8 8 8 9 10 11 12 12 11 12 12 12 11 11
4 0 4 2 2 3 6 5 6 4 3 3 4 4 5 3 4 2 2 3 3 1 2 1 2 7 14 17 12 9 9 9 10 12 12 14 15 15 15 15 15 14 13 12
5 4 4 4 4 3 5 6 3 4 4 5 2 2 8 4 4 3 5 6 5 3 2 2 3 6 11 12 11 10 10 13 12 13 16 17 17 17 18 18 18 17 16 15
4 5 6 7 3 3 4 4 5 5 2 4 3 5 5 5 2 4 1 4 4 4 3 3 3 6 8 10 10 10 12 16 15 17 20 20 20 21 21 21 20 21 19 18
3 3 3 4 3 2 3 3 3 7 2 3 2 7 7 5 6 3 4 3 5 4 4 4 2 3 5 7 9 10 13 16 18 21 22 23 23 25 25 23 22 23 21 20
3 4 3 3 1 4 1 6 4 3 2 3 4 5 5 4 6 3 3 5 5 3 4 2 2 4 6 7 8 9 10 14 15 17 19 21 22 24 25 25 25 25 23 22
1 2 3 1 2 2 2 2 4 4 3 4 1 5 5 5 4 4 2 1 1 2 2 2 2 1 2 3 4 5 6 10 14 17 20 21 21 21 22 24 26 26 23 23
1 3 2 1 0 1 2 2 3 4 3 2 3 6 2 3 4 3 2 3 3 3 3 2 4 4 6 7 7 8 10 13 16 20 21 22 22 21 20 22 24 24 24 23
2 2 2 5 3 3 2 3 3 4 3 5 5 5 1 1 3 4 3 1 2 2 4 4 7 7 7 8 9 11 13 16 18 19 21 22 21 21 20 19 19 20 22 23
3 3 2 5 3 2 3 3 4 4 3 4 6 5 3 3 4 2 1 3 3 3 4 3 3 4 6 9 11 14 15 17 19 20 21 22 22 21 19 16 15 16 18 21
2 4 5 4 4 2 3 5 5 8 5 6 3 7 6 5 7 7 5 3 3 4 4 2 2 5 7 10 11 13 14 17 17 18 18 18 19 18 16 14 14 15 16 18
2 2 0 3 4 8 6 10 10 7 5 9 9 16 9 9 4 5 7 6 6 5 2 1 3 5 7 9 10 11 13 14 15 15 16 18 19 19 17 15 14 15 16 17
3 3 2 3 4 7 8 6 5 2 4 6 8 8 5 6 7 8 8 8 8 7 6 5 5 6 8 8 9 11 13 13 13 14 17 18 20 21 20 18 17 18 19 20
3 2 2 3 4 1 3 2 3 6 4 6 8 6 7 8 6 6 3 6 7 5 5 4 7 8 8 8 9 10 11 11 12 13 16 17 19 20 20 21 21 21 21 21
2 4 2 1 2 7 1 1 2 3 2 3 4 5 3 2 0 3 2 4 3 3 5 8 8 8 8 8 8 9 10 11 10 13 15 17 18 20 20 21 21 21 23 23
3 4 3 2 1 5 3 1 1 2 4 2 4 1 1 3 4 4 3 5 6 8 10 10 7 7 7 7 8 10 11 11 12 15 17 17 17 19 21 21 23 23 22 23
3 1 4 3 3 7 5 3 1 2 4 5 4 4 3 1 4 3 2 2 7 8 9 8 8 9 9 8 10 12 13 15 15 16 17 18 18 19 19 21 22 22 23 22
6 6 4 3 3 7 5 1 2 5 2 3 3 3 4 7 8 6 6 6 7 9 10 10 10 11 10 10 11 14 15 15 16 17 18 18 18 19 20 20 23 22 20 19
3 5 4 8 6 5 3 3 3 2 4 1 3 6 5 7 7 7 6 5 6 10 11 10 11 12 11 10 10 14 17 17 17 17 18 19 19 19 18 21 22 22 19 17
4 4 3 1 5 6 7 6 3 1 1 6 5 7 5 7 8 7 3 5 7 10 9 9 9 11 13 11 12 13 17 17 17 19 20 19 19 20 20 19 18 17 16 16
3 5 3 5 9 6 3 3 1 4 6 8 9 7 8 5 7 5 5 5 9 9 9 8 8 10 14 15 15 14 15 15 18 19 21 21 19 19 20 19 19 16 14 13
5 6 4 8 1 3 5 2 5 4 6 6 6 7 5 5 6 4 5 7 8 9 8 7 9 11 15 16 17 16 15 15 17 20 22 20 20 19 19 18 20 14 12 12
Wind_Direction
318 72 97 71 31 117 128 110 115 342 349 70 17 278 279 187 200 229 241 243 246 242 247 230 219 213 209 211 219 229 239 263 284 302 310 303 299 320 336 343 350 353 358 3
46 70 329 35 43 91 67 110 69 20 18 81 6 281 253 174 219 206 220 236 240 242 234 234 220 214 212 215 221 228 243 258 264 275 287 298 306 310 320 332 342 343 347 354
100 305 338 115 47 80 45 103 164 152 101 72 342 314 284 39 254 236 243 246 245 232 236 234 223 218 214 213 219 229 243 250 260 279 292 301 302 305 308 311 319 328 336 343
71 337 52 83 76 58 76 319 101 106 79 173 17 254 294 328 293 276 323 291 258 246 244 234 222 218 215 214 218 230 241 254 269 280 283 285 290 294 301 308 313 319 322 328
14 16 41 61 336 22 119 82 95 92 86 74 350 66 260 323 226 235 324 304 305 213 223 237 227 226 217 208 216 228 245 257 270 280 282 283 286 285 291 294 299 301 301 308
85 72 64 49 25 67 152 76 52 63 84 40 325 107 283 203 190 189 239 245 239 295 17 349 233 204 205 204 213 230 252 263 269 271 273 277 277 283 284 287 288 289 292 295
5 5 356 37 73 42 67 56 11 11 8 215 319 39 242 239 229 214 208 230 253 280 299 258 198 189 190 201 219 239 254 265 271 277 278 273 275 276 277 280 280 280 282 282
108 353 5 340 51 148 62 123 145 183 184 261 344 241 256 211 269 263 262 202 228 255 288 290 255 207 201 217 235 251 261 275 283 284 281 278 276 275 275 276 275 274 276 279
116 30 330 36 3 48 177 71 153 106 74 46 265 288 299 245 267 260 235 221 251 278 286 286 276 231 237 244 255 265 273 285 294 297 292 286 281 273 273 276 274 274 273 273
196 97 16 315 4 34 91 144 73 1 134 279 297 276 242 310 236 246 227 246 278 284 321 312 287 255 253 262 273 280 293 302 314 319 317 306 295 283 276 273 270 270 272 269
33 98 289 10 37 173 30 25 47 112 112 162 252 266 220 241 219 198 184 136 35 23 356 341 356 7 345 335 342 357 352 337 332 331 330 325 310 296 281 270 269 269 271 268
356 119 113 134 157 237 194 166 137 113 224 70 124 276 309 248 198 173 130 6 359 3 353 14 43 50 63 55 27 4 351 338 334 329 327 326 324 308 290 277 273 273 271 269
357 30 42 351 7 3 237 201 127 104 91 196 150 261 300 247 204 226 217 275 332 29 43 46 61 45 30 21 8 352 340 332 330 331 330 326 321 320 304 291 286 280 273 270
98 56 136 187 213 154 247 215 183 137 131 194 225 269 278 224 212 160 157 205 157 108 111 107 46 14 5 359 349 342 337 335 334 331 330 327 327 322 313 298 290 289 283 274
100 147 154 234 248 267 258 249 190 206 210 198 257 220 257 253 226 236 269 233 175 174 136 73 350 325 335 341 342 341 342 341 338 338 338 339 337 332 323 309 303 302 295 286
6 184 131 276 177 176 229 221 216 228 254 270 286 279 224 259 266 264 243 214 221 204 196 277 288 309 320 331 332 333 335 339 339 337 342 345 347 351 349 333 320 314 309 302
13 105 61 279 351 330 298 260 182 187 203 190 236 250 262 268 245 244 225 201 206 201 217 246 279 294 304 309 322 327 330 334 338 342 345 346 346 345 345 340 333 327 322 314
132 91 31 292 343 341 244 285 199 205 249 231 297 289 271 267 282 284 239 181 202 231 256 270 276 277 297 309 316 321 330 337 341 345 348 351 347 343 340 336 333 329 322 317
93 127 76 118 246 295 33 17 123 113 264 206 247 306 20 32 28 2 194 199 220 263 289 290 290 293 299 306 315 321 327 328 330 340 345 347 346 341 340 337 333 328 324 319
67 60 121 138 174 244 239 303 40 142 303 298 174 109 54 32 29 271 249 222 240 265 266 273 273 276 286 301 308 308 310 323 330 335 336 339 341 339 338 337 333 328 323 315
127 121 192 190 243 285 250 259 199 74 264 193 198 200 181 216 208 252 301 235 252 280 291 283 273 272 283 300 306 300 308 314 321 324 326 332 336 337 338 333 334 331 326 320
173 151 192 132 203 275 185 70 201 219 263 244 261 250 245 249 276 273 259 258 267 283 288 278 277 280 290 301 303 300 300 313 313 316 319 325 329 334 336 334 335 334 331 325
238 194 184 189 211 231 212 215 238 187 225 197 253 270 245 265 256 255 247 266 280 277 273 269 269 282 290 301 304 300 307 313 312 312 316 321 323 330 337 337 335 333 333 329
238 169 221 112 261 236 242 275 268 273 269 296 266 258 258 252 271 271 287 277 272 274 264 264 268 283 293 304 305 304 311 313 309 308 311 316 319 327 332 332 332 326 325 324
203 155 211 257 279 286 239 198 129 318 292 283 282 275 263 253 261 241 264 280 283 279 278 272 280 291 299 312 313 319 318 313 307 307 311 315 318 323 324 326 328 324 315 310
182 200 204 265 281 198 244 249 291 295 293 286 287 297 289 222 252 264 285 291 280 283 288 288 297 303 307 312 314 321 322 313 307 305 308 311 312 313 313 317 321 325 314 304
Height
793 804 817 803 804 801 806 809 815 814 812 807 813 813 810 814 817 820 820 822 821 820 818 819 821 823 826 828 829 830 831 831 832 831 831 831 831 831 830 830 829 827 826 824
801 807 805 804 803 804 808 813 819 815 814 811 818 814 811 814 814 814 815 818 818 818 817 816 817 820 822 824 827 828 830 830 830 830 830 830 831 830 830 829 828 826 824 823
804 806 802 804 811 807 818 817 820 816 817 824 822 818 808 809 810 809 812 813 813 814 814 813 814 816 819 821 825 827 828 828 829 829 830 830 830 829 828 827 826 826 824 822
811 808 804 806 813 813 813 818 817 821 824 841 838 849 816 815 811 807 812 814 813 811 810 810 810 812 814 819 823 825 826 827 828 828 828 828 828 827 826 826 825 824 823 822
814 814 813 815 815 813 817 817 820 826 836 844 840 862 822 818 810 807 808 807 807 806 807 807 807 809 812 817 820 823 825 826 826 826 826 827 826 826 824 824 823 822 821 820
814 813 816 815 815 813 817 819 829 841 844 869 850 863 833 822 806 807 807 807 806 806 806 806 806 807 810 816 819 821 822 823 824 824 824 823 823 822 821 820 820 820 819 818
821 819 817 818 814 815 820 833 877 855 873 857 855 866 828 809 808 806 807 808 808 807 807 808 807 808 811 815 818 819 820 821 823 822 822 820 819 818 818 817 817 817 815 814
845 846 826 823 823 820 827 831 870 851 864 865 855 854 821 812 808 809 805 807 808 809 810 809 809 810 812 814 816 818 819 819 820 820 818 817 815 814 814 813 813 812 812 812
834 831 826 825 823 824 826 843 838 869 888 881 860 835 812 811 811 808 808 809 810 810 810 809 809 811 812 813 815 816 817 817 817 816 814 812 810 810 808 808 809 808 808 808
823 830 831 826 824 827 825 836 846 862 844 849 862 843 830 830 816 809 809 811 810 809 809 809 809 810 811 812 813 814 814 815 814 813 810 807 805 804 804 804 803 803 804 804
821 826 834 828 830 831 833 835 845 849 857 856 856 834 821 834 820 808 807 808 808 809 810 810 810 810 811 811 811 812 813 813 812 809 807 804 801 799 798 797 797 797 799 799
826 836 854 829 831 831 830 830 841 853 847 870 865 842 814 812 811 808 807 809 810 810 811 810 809 810 811 811 811 812 812 812 810 807 804 801 798 795 793 792 792 793 793 794
826 834 858 835 835 833 831 833 837 847 852 852 855 836 812 810 810 809 808 809 811 810 811 811 810 811 812 811 811 811 810 808 806 803 800 797 795 791 789 788 788 788 788 788
827 843 835 842 829 833 831 832 838 836 864 844 844 818 807 807 808 807 807 808 810 811 812 812 812 812 812 811 811 809 808 805 802 800 798 795 791 787 785 783 783 782 782 781
832 837 849 838 840 837 834 830 837 839 833 831 815 828 812 810 812 812 811 809 810 812 812 813 813 813 811 809 808 806 804 802 800 798 796 793 789 785 782 780 779 778 777 776
837 835 842 833 835 837 835 834 838 838 833 837 830 821 816 812 810 811 811 813 812 812 812 812 811 809 807 806 805 804 803 801 799 797 795 791 787 783 780 778 776 775 773 771
838 843 846 833 844 840 830 825 826 825 827 820 821 803 805 805 805 805 805 808 808 808 809 809 807 806 804 804 803 802 801 800 798 795 793 789 785 781 778 776 774 772 769 767
842 843 852 852 840 838 812 812 813 818 814 820 819 814 814 810 807 805 804 806 809 808 807 806 805 804 803 803 802 802 800 798 796 793 790 787 783 780 776 773 770 768 766 763
840 843 851 856 861 825 806 808 806 808 806 811 815 815 810 807 805 804 805 805 805 805 805 804 804 804 804 803 802 800 799 797 795 792 788 785 781 778 774 771 768 765 762 758
845 846 848 856 852 823 805 806 807 806 815 806 811 805 803 804 813 812 800 801 801 801 801 801 802 803 802 801 800 799 797 794 791 787 784 782 779 776 772 768 765 762 759 755
847 848 850 851 848 832 814 809 808 808 812 805 804 802 803 807 808 802 801 800 801 801 801 801 801 799 798 797 796 795 794 791 788 785 782 779 776 772 769 765 762 759 755 751
840 850 851 852 851 844 807 809 807 809 804 803 804 802 803 803 801 800 799 799 798 798 797 798 797 796 796 795 794 791 790 788 784 782 779 776 773 769 765 761 758 755 751 748
834 828 833 831 822 806 805 801 800 804 805 803 804 802 802 802 799 796 795 796 796 795 794 794 794 794 793 792 791 789 786 784 781 777 774 772 769 766 762 757 754 750 748 746
822 824 824 819 802 807 807 804 804 802 803 803 801 800 797 797 795 794 794 793 792 792 791 791 791 791 789 788 787 785 782 780 778 774 770 767 764 761 757 755 751 748 746 744
815 819 814 821 809 803 801 801 801 800 800 799 797 796 793 791 791 792 790 789 789 788 788 788 787 787 786 785 782 780 778 776 773 770 767 763 760 757 754 752 749 746 744 742
809 804 811 801 800 801 802 798 799 799 798 796 796 793 789 788 788 788 789 788 787 785 785 785 785 784 783 782 778 776 774 774 770 765 762 759 756 754 751 748 744 743 741 740